Orbital Elements at Epoch 2459200.5 (2020-Dec-17.0) TDB
Reference: JPL 11 (heliocentric ecliptic J2000)
Element | Value | Uncertainty (1-sigma) | Units |
e | .05975648646490768 | 5.3656e-08 | |
a | 2.989414315108757 | 2.9149e-08 | au |
q | 2.810777419049959 | 1.5712e-07 | au |
i | 1.856451394425931 | 5.0301e-06 | deg |
node | 51.89370610160867 | 0.00018841 | deg |
peri | 56.31644525267644 | 0.00019535 | deg |
M | 224.9514170333343 | 5.5843e-05 | deg |
tp | 2459908.715002604282 (2022-Nov-25.21500260) | 0.00029828 | TDB |
period | 1887.893936661839 5.17 | 2.7612e-05 7.56e-08 | d yr |
n | .1906886785369678 | 2.789e-09 | deg/d |
Q | 3.168051211167554 | 3.0891e-08 | au |
|
| | Orbit Determination Parameters
Additional Information
|